Location: Lancaster
(40.0380°N, 76.3060°W)
Time: 18:55:40
(UTC-04:00)

Tiangong - Visible Passes

Search period start: 10 May 2026 00:00
Search period end: 20 May 2026 00:00
Orbit: 379 x 385 km, 41.5° (Epoch: 10 May)

Date Brightness Start Highest point End Pass type
(mag) Time Alt. Az. Time Alt. Az. Time Alt. Az.
10 May 0.6 03:06:08 16° E 03:06:08 16° E 03:06:52 10° E visible
10 May -1.8 04:38:15 17° W 04:40:32 64° N 04:43:42 10° E visible
11 May -1.5 03:40:18 56° NE 03:40:18 56° NE 03:42:59 10° ENE visible
11 May -2.1 05:13:32 10° WNW 05:16:42 83° N 05:19:52 10° E visible
12 May -1.9 04:14:32 29° WNW 04:15:59 68° N 04:19:07 10° E visible
13 May -0.2 03:16:41 28° ENE 03:16:41 28° ENE 03:18:21 10° E visible
13 May -2.2 04:48:53 10° WNW 04:52:02 74° SSW 04:55:11 10° ESE visible
14 May -2.2 03:51:09 78° NW 03:51:17 81° N 03:54:27 10° E visible
15 May -2.0 04:25:52 27° W 04:27:12 49° SSW 04:30:16 10° SE visible
16 May 0.2 03:28:45 17° ESE 03:28:45 17° ESE 03:29:36 10° ESE visible
16 May -0.6 05:00:57 12° WSW 05:02:54 18° SSW 05:05:10 10° SSE visible
17 May 0.1 04:04:19 15° SSE 04:04:19 15° SSE 04:05:03 10° SE visible
18 May -0.4 21:08:42 10° S 21:10:36 15° SSE 21:11:09 15° SE visible
19 May -1.8 21:43:10 10° SW 21:46:08 41° SSE 21:46:46 35° SE visible
